Flag for U.S.A. Weather past 2 weeks in Wichita Falls, Texas, U.S.A.

Now
83 °F

Sunny.


Feels Like: 83 °F
Forecast: 70 / 94 °F
Wind: 5 mph from North

Location: Wichita Falls - Sheppard Air Force Base

Current Time: Aug 30, 2015 at 11:18:22 AM

Latest Report: Aug 30, 2015 at 10:52 AM


Visibility: 10 mi

Pressure: 29.97 "Hg

Humidity: 48%

Dew point: 61 °F

Location of Wichita FallsLocation

Historic Weather in Wichita Falls — Graph

°F

Wichita Falls temperature yesterday

Maximum temperature yesterday: 98 °F (at 4:52 PM)
Minimum temperature yesterday: 73 °F (at 5:52 AM)
Average temperature yesterday: 85 °F

Past Weeks' High & Low Weather Summary

 TemperatureHumidityPressure
High99 °F (Aug 22, 2:52 PM)97% (Aug 20, 7:52 AM)30.12 "Hg (Aug 20, 7:52 AM)
Low56 °F (Aug 20, 6:52 AM)24% (Aug 16, 3:52 PM)29.61 "Hg (Aug 19, 12:52 AM)
Average81 °F58%29.93 "Hg
* Reported Aug 15 9:52 AM — Aug 30 9:52 AM, Wichita Falls, Weather by CustomWeather, © 2015

Note: Actual official high and low records may vary slightly from our data, if they occured in-between our weather recording intervals... More about our weather records

Advertising

Wichita Falls weather history for previous 24 hours

 ConditionsComfort  
Time TempWeatherWind HumidityBarometerVisibility
9:52 AM
Sun, Aug 30
79 °FSunny.3 mph52%29.96 "Hg10 mi
8:52 AM74 °FSunny.5 mph60%29.95 "Hg10 mi
7:52 AM71 °FClear.7 mph63%29.95 "Hg10 mi
6:52 AM66 °FClear.8 mph73%29.94 "Hg10 mi
5:52 AM70 °FClear.No wind59%29.91 "Hg10 mi
4:52 AM73 °FClear.7 mph51%29.90 "Hg10 mi
3:52 AM75 °FClear.9 mph47%29.90 "Hg10 mi
2:52 AM77 °FPassing clouds.3 mph44%29.90 "Hg10 mi
1:52 AM75 °FClear.6 mph50%29.92 "Hg10 mi
12:52 AM79 °FPassing clouds.N/A39%29.92 "Hg10 mi
11:52 PM
Sat, Aug 29
82 °FMostly cloudy.3 mph37%29.93 "Hg10 mi
10:52 PM82 °FPassing clouds.7 mph38%29.93 "Hg10 mi
10:00 PM84 °FThundershowers. Passing clouds.13 mph32%29.97 "Hg10 mi
8:52 PM86 °FSunny.13 mph35%29.90 "Hg10 mi
7:52 PM88 °FPassing clouds.13 mph39%29.89 "Hg10 mi
6:52 PM92 °FSunny.9 mph37%29.87 "Hg10 mi
5:52 PM95 °FSunny.8 mph30%29.86 "Hg10 mi
4:52 PM98 °FSunny.7 mph28%29.87 "Hg10 mi
3:52 PM97 °FSunny.N/A30%29.88 "Hg10 mi
2:52 PM96 °FSunny.5 mph31%29.90 "Hg10 mi
1:52 PM93 °FSunny.8 mph32%29.91 "Hg10 mi
12:52 PM93 °FSunny.7 mph32%29.93 "Hg10 mi
11:52 AM91 °FSunny.5 mph33%29.94 "Hg10 mi
Weather by CustomWeather, © 2015

See weather overviewHow to use our weather pages